Weather History for Vagabond Aaf / Yakim, WA

Change the Weather History Date:

Sunday, December 8, 2013

  Actual Average (KYKM) Record (KYKM)
Temperature  
Mean Temperature 8 °F 29 °F  
Max Temperature 18 °F 37 °F 53 °F (1991)
Min Temperature -2 °F 22 °F -7 °F (1972)
Degree Days  
Heating Degree Days 57 36  
Month to date heating degree days 276  
Since 1 July heating degree days 1809  
Cooling Degree Days 0 0  
Month to date cooling degree days 0  
Year to date cooling degree days 472  
Moisture  
Dew Point -2 °F    
Average Humidity 67    
Maximum Humidity 79    
Minimum Humidity 48    
Precipitation  
Precipitation 0.00 in 0.05 in 0.41 in (1993)
Month to date precipitation 0.39  
Year to date precipitation 7.11  
Snow  
Snow 0.00 in 0.30 in 4.80 in (1948)
Month to date snowfall 2.3  
Year to date snowfall 14.5  
Since 1 July snowfall 5.9  
Snow Depth -    
Sea Level Pressure  
Sea Level Pressure 30.44 in    
Wind  
Wind Speed 3 mph (SSW)    
Max Wind Speed 6 mph    
Max Gust Speed -    
Visibility 12 miles    
Events      
T = Trace of Precipitation, MM = Missing Value Source: NWS Daily Summary

Daily Weather History Graph

Daily Weather History Graph

Search for Another Location

Airport:

Trip Planner

Search our weather history database for the weather conditions in past years. The results will help you decide how hot, cold, wet, or windy it might be!

Date:

Astronomy

Dec. 08, 2013 Rise Set
Actual Time 7:33 AM PST 4:13 PM PST
Civil Twilight 6:58 AM PST 4:48 PM PST
Nautical Twilight 6:20 AM PST 5:27 PM PST
Astronomical Twilight 5:43 AM PST 6:03 PM PST
Moon 11:39 AM PST (12/8) 11:28 PM PST (12/8)
Length of Visible Light 9h 50m
Length of Day
8h 40m
Waxing Crescent, 41% of the Moon is Illuminated
Dec 8
Waxing Crescent
Dec 9
First Quarter
Dec 17
Full
Dec 25
Last Quarter
Jan 1
New

Hourly Weather History & Observations

Time (PST) Temp. Windchill Dew Point Humidity Pressure Visibility Wind Dir Wind Speed Gust Speed Precip Events Conditions
12:56 AM -0.8 °F - -8.7 °F 69% 30.37 in 12.0 mi ESE 2.3 mph - N/A   Clear
1:56 AM 0.1 °F -7.7 °F -6.7 °F 73% 30.38 in 12.0 mi SW 3.5 mph - N/A   Clear
2:56 AM -1.1 °F -9.1 °F -7.6 °F 74% 30.38 in 12.0 mi SSW 3.5 mph - N/A   Clear
3:56 AM -2.0 °F -10.1 °F -7.4 °F 78% 30.38 in 12.0 mi West 3.5 mph - N/A   Scattered Clouds
4:56 AM -0.9 °F -8.9 °F -6.2 °F 79% 30.36 in 12.0 mi SW 3.5 mph - N/A   Scattered Clouds
5:56 AM 1.8 °F - -4.5 °F 75% 30.38 in 12.0 mi West 1.2 mph - N/A   Mostly Cloudy
6:56 AM 3.7 °F - -3.5 °F 72% 30.39 in 12.0 mi Calm Calm - N/A   Mostly Cloudy
7:56 AM 4.1 °F - -2.4 °F 75% 30.40 in 12.0 mi SW 2.3 mph - N/A   Overcast
8:56 AM 5.7 °F - -2.6 °F 69% 30.41 in 12.0 mi East 2.3 mph - N/A   Mostly Cloudy
9:56 AM 8.4 °F - -0.4 °F 67% 30.42 in 12.0 mi NW 1.2 mph - N/A   Overcast
10:56 AM 10.4 °F - 1.2 °F 66% 30.42 in 12.0 mi Variable 1.2 mph - N/A   Scattered Clouds
11:56 AM 14.4 °F - -0.6 °F 52% 30.42 in 12.0 mi WNW 2.3 mph - N/A   Clear
12:56 PM 16.9 °F 8.5 °F 1.0 °F 50% 30.42 in 12.0 mi West 5.8 mph - N/A   Clear
1:56 PM 18.1 °F 12.9 °F 1.6 °F 48% 30.43 in 12.0 mi Variable 3.5 mph - N/A   Clear
2:56 PM 17.6 °F 10.7 °F 1.4 °F 49% 30.45 in 12.0 mi SW 4.6 mph - N/A   Clear
3:56 PM 16.9 °F - 0.9 °F 50% 30.47 in 12.0 mi West 1.2 mph - N/A   Clear
4:56 PM 10.4 °F - -0.4 °F 62% 30.47 in 12.0 mi SE 2.3 mph - N/A   Clear
5:56 PM 9.1 °F - -0.8 °F 64% 30.48 in 12.0 mi SE 1.2 mph - N/A   Clear
6:56 PM 9.1 °F -0.7 °F 0.3 °F 67% 30.47 in 12.0 mi WSW 5.8 mph - N/A   Clear
7:56 PM 7.3 °F 0.5 °F -0.8 °F 69% 30.49 in 12.0 mi East 3.5 mph - N/A   Clear
8:56 PM 6.6 °F - -0.9 °F 71% 30.51 in 12.0 mi North 2.3 mph - N/A   Clear
9:56 PM 5.4 °F - -1.7 °F 73% 30.51 in 12.0 mi ESE 2.3 mph - N/A   Clear
10:56 PM 5.7 °F -4.8 °F -0.8 °F 75% 30.52 in 12.0 mi ESE 5.8 mph - N/A   Clear
11:56 PM 5.4 °F - -1.3 °F 74% 30.51 in 12.0 mi SSE 2.3 mph - N/A   Scattered Clouds